Skip Page Navigation
NASA JPL Caltech
NASA Logo - Jet Propulsion Laboratory + View the NASA Portal
+ Center for Near-Earth Object Studies
JPL Home Earth Solar System Stars & Galaxies Technology
JPL Solar System Dynamics
BODIES ORBITS EPHEMERIDES TOOLS PHYSICAL DATA DISCOVERY FAQ SITE MAP

Significant website upgrade scheduled for September 27. More details available here.

JPL Small-Body Database Browser
Search: [ help ]  
4964 Kourovka (1979 OD15)
Classification: Main-belt Asteroid          SPK-ID: 2004964
Ephemeris | Orbit Diagram | Orbital Elements | Mission Design | Physical Parameters | Discovery Circumstances ]

[ hide orbit diagram ]

For accurate long-term ephemerides, please instead use our Horizons system.This orbit viewer was implemented using two-body methods, and hence should not be used for determining accurate long-term trajectories (over several years or decades) or planetary encounter circumstances.


Orbital Elements at Epoch 2459396.5 (2021-Jul-01.0) TDB
Reference: JPL 42 (heliocentric ecliptic J2000)
 Element Value Uncertainty (1-sigma)   Units 
e .1233896424906574 8.7591e-09  
a 2.262431884147094 5.835e-09 au
q 1.98327122280272 2.2474e-08 au
i 4.919233585915901 2.1681e-07 deg
node 167.4034209296589 3.0676e-06 deg
peri 204.8626701016378 7.0055e-06 deg
M 65.18461221975652 7.1522e-06 deg
tp 2459171.436907885288
(2020-Nov-17.93690789)
2.4799e-05 TDB
period 1242.973002403467
3.40
4.8086e-06
1.317e-08
d
yr
n .2896281731814676 1.1205e-09 deg/d
Q 2.541592545491468 6.555e-09 au
  Orbit Determination Parameters
   # obs. used (total)      2946  
   data-arc span      15218 days (41.66 yr)  
   first obs. used      1979-07-21  
   last obs. used      2021-03-20  
   planetary ephem.      DE441  
   SB-pert. ephem.      SB441-N16  
   condition code      0  
   norm. resid. RMS      .42571  
   source      ORB  
   producer      Otto Matic  
   solution date      2021-Aug-25 11:00:22  

Additional Information
 Earth MOID = .983316 au 
 Jupiter MOID = 2.92326 au 
 T_jup = 3.604 
[ show covariance matrix ]

Ephemeris | Orbit Diagram | Orbital Elements | Mission Design | Physical Parameters | Discovery Circumstances ]

Physical Parameter Table
Parameter Symbol Value Units Sigma Reference Notes
absolute magnitude H 13.61   n/a MPCxxxxx  
diameter diameter 4.423 km 0.106 urn:nasa:pds:neowise_diameters_albedos::2.0[mainbelt] (http://adsabs.harvard.edu/abs/2012ApJ...759L...8M)  
geometric albedo albedo 0.394   0.060 urn:nasa:pds:neowise_diameters_albedos::2.0[mainbelt] (http://adsabs.harvard.edu/abs/2012ApJ...759L...8M)  

4964 Kourovka (1979 OD15)          Discovered 1979-Jul-21 by Chernykh, N. S. at Nauchnyj
Reference: DISCOVERY.DBLast Updated: 2003-08-29

Alternate Designations
 1979 OD15 = 1986 RY6 
Ephemeris | Orbit Diagram | Orbital Elements | Mission Design | Physical Parameters | Discovery Circumstances ]
ABOUT SSD CREDITS/AWARDS PRIVACY/COPYRIGHT GLOSSARY LINKS
FirstGov 2021-Sep-26 23:21 UT
(server date/time)  
NASA Home Page
Site Manager:   Ryan S. Park
Webmaster  Alan B. Chamberlin